Weather History for KJYR - March, 2014

Change the Weather History Date:

Wednesday, March 5, 2014

  Actual Average Record
Temperature  
Mean Temperature 24 °F -  
Max Temperature 32 °F 44 °F - (-1)
Min Temperature 17 °F 23 °F - (-1)
Degree Days  
Heating Degree Days 40    
Moisture  
Dew Point 15 °F    
Average Humidity 68    
Maximum Humidity 80    
Minimum Humidity 51    
Precipitation  
Precipitation 0.00 in - - ()
Sea Level Pressure  
Sea Level Pressure 30.20 in    
Wind  
Wind Speed 13 mph (NE)    
Max Wind Speed 21 mph    
Max Gust Speed 24 mph    
Visibility 10 miles    
Events Snow    
Averages and records for this station are not official NWS values.
T = Trace of Precipitation, MM = Missing Value Source: NWS Daily Summary

Daily Weather History Graph

Daily Weather History Graph

Search for Another Location

Airport or City:

Trip Planner

Search our weather history database for the weather conditions in past years. The results will help you decide how hot, cold, wet, or windy it might be!

Date:

Astronomy

Mar. 05, 2014 Rise Set
Actual Time 6:58 AM CST 6:26 PM CST
Civil Twilight 6:30 AM CST 6:53 PM CST
Nautical Twilight 5:59 AM CST 7:25 PM CST
Astronomical Twilight 5:27 AM CST 7:57 PM CST
Moon 9:22 AM CST (3/5) 11:38 PM CST (3/5)
Length of Visible Light 12h 22m
Length of Day
11h 27m
Waxing Crescent, 23% of the Moon is Illuminated
Mar 5
Waxing Crescent
Mar 8
First Quarter
Mar 16
Full
Mar 23
Last Quarter
Mar 30
New

Hourly Weather History & Observations

Time (CST) Temp. Windchill Dew Point Humidity Pressure Visibility Wind Dir Wind Speed Gust Speed Precip Events Conditions
12:15 AM 24.8 °F 12.4 °F 19.4 °F 80% 30.07 in 10.0 mi NNE 15.0 mph - N/A   Overcast
12:35 AM 24.8 °F 11.9 °F 17.6 °F 74% 30.06 in 10.0 mi North 16.1 mph 21.9 mph N/A   Overcast
12:55 AM 23.0 °F 9.2 °F 17.6 °F 80% 30.08 in 10.0 mi North 17.3 mph - N/A   Overcast
1:15 AM 23.0 °F 8.0 °F 17.6 °F 80% 30.08 in 10.0 mi North 20.7 mph 24.2 mph N/A Snow Light Snow
1:35 AM 23.0 °F 8.7 °F 15.8 °F 74% 30.09 in 10.0 mi NNE 18.4 mph - N/A   Overcast
1:55 AM 23.0 °F 8.7 °F 15.8 °F 74% 30.10 in 10.0 mi North 18.4 mph 23.0 mph N/A   Overcast
2:15 AM 23.0 °F 10.1 °F 15.8 °F 74% 30.11 in 10.0 mi North 15.0 mph - N/A   Overcast
2:35 AM 23.0 °F 9.6 °F 15.8 °F 74% 30.12 in 10.0 mi North 16.1 mph - N/A   Overcast
2:55 AM 21.2 °F 7.8 °F 14.0 °F 74% 30.12 in 10.0 mi North 15.0 mph 20.7 mph N/A Snow Light Snow
3:15 AM 21.2 °F 7.3 °F 14.0 °F 74% 30.12 in 10.0 mi North 16.1 mph 21.9 mph N/A   Overcast
3:35 AM 21.2 °F 7.8 °F 14.0 °F 74% 30.12 in 10.0 mi North 15.0 mph 18.4 mph N/A   Overcast
3:55 AM 21.2 °F 7.8 °F 14.0 °F 74% 30.12 in 10.0 mi North 15.0 mph - N/A   Overcast
4:15 AM 19.4 °F 4.5 °F 14.0 °F 80% 30.12 in 10.0 mi North 17.3 mph - N/A   Overcast
4:35 AM 19.4 °F 3.2 °F 14.0 °F 80% 30.13 in 10.0 mi North 20.7 mph - N/A   Overcast
4:55 AM 19.4 °F 4.1 °F 14.0 °F 80% 30.13 in 10.0 mi North 18.4 mph - N/A   Overcast
5:15 AM 17.6 °F 2.7 °F 12.2 °F 79% 30.14 in 10.0 mi North 16.1 mph - N/A   Overcast
5:35 AM 17.6 °F 2.7 °F 12.2 °F 79% 30.14 in 10.0 mi North 16.1 mph 21.9 mph N/A   Overcast
5:55 AM 17.6 °F 5.0 °F 12.2 °F 79% 30.16 in 10.0 mi North 11.5 mph 19.6 mph N/A   Overcast
6:15 AM 17.6 °F 1.3 °F 12.2 °F 79% 30.15 in 10.0 mi North 19.6 mph 24.2 mph N/A   Overcast
6:35 AM 17.6 °F 1.7 °F 12.2 °F 79% 30.15 in 10.0 mi North 18.4 mph 24.2 mph N/A   Overcast
6:55 AM 17.6 °F 2.2 °F 12.2 °F 79% 30.16 in 10.0 mi North 17.3 mph 24.2 mph N/A   Overcast
7:15 AM 17.6 °F 4.3 °F 12.2 °F 79% 30.18 in 10.0 mi North 12.7 mph 21.9 mph N/A   Overcast
7:35 AM 19.4 °F 6.0 °F 14.0 °F 80% 30.19 in 10.0 mi North 13.8 mph 20.7 mph N/A   Overcast
7:55 AM 19.4 °F 4.5 °F 14.0 °F 80% 30.21 in 10.0 mi North 17.3 mph 21.9 mph N/A   Overcast
8:15 AM 19.4 °F 5.5 °F 14.0 °F 80% 30.22 in 10.0 mi North 15.0 mph 19.6 mph N/A   Overcast
8:35 AM 19.4 °F 5.5 °F 14.0 °F 80% 30.23 in 10.0 mi North 15.0 mph - N/A   Overcast
8:55 AM 19.4 °F 6.0 °F 14.0 °F 80% 30.23 in 10.0 mi North 13.8 mph 19.6 mph N/A   Overcast
9:15 AM 19.4 °F 5.0 °F 14.0 °F 80% 30.24 in 10.0 mi North 16.1 mph 23.0 mph N/A   Overcast
9:35 AM 19.4 °F 4.5 °F 14.0 °F 80% 30.24 in 10.0 mi North 17.3 mph - N/A   Overcast
9:55 AM 21.2 °F 6.8 °F 14.0 °F 74% 30.25 in 10.0 mi North 17.3 mph - N/A   Overcast
10:15 AM 23.0 °F 9.2 °F 14.0 °F 68% 30.26 in 10.0 mi North 17.3 mph 21.9 mph N/A   Overcast
10:35 AM 24.8 °F 12.4 °F 14.0 °F 64% 30.27 in 10.0 mi NNE 15.0 mph 20.7 mph N/A   Overcast
10:55 AM 24.8 °F 12.4 °F 14.0 °F 64% 30.27 in 10.0 mi NNE 15.0 mph 21.9 mph N/A   Overcast
11:15 AM 24.8 °F 12.9 °F 14.0 °F 64% 30.28 in 10.0 mi NNE 13.8 mph 19.6 mph N/A   Overcast
11:35 AM 24.8 °F 12.9 °F 14.0 °F 64% 30.27 in 10.0 mi NNE 13.8 mph - N/A   Overcast
11:55 AM 26.6 °F 15.7 °F 14.0 °F 59% 30.27 in 10.0 mi North 12.7 mph 18.4 mph N/A   Overcast
12:15 PM 26.6 °F 16.8 °F 14.0 °F 59% 30.26 in 10.0 mi NNE 10.4 mph 19.6 mph N/A   Overcast
12:40 PM 28.4 °F 18.5 °F 14.0 °F 55% 30.26 in 10.0 mi NE 11.5 mph - N/A   Overcast
12:55 PM 28.4 °F 18.5 °F 15.8 °F 59% 30.25 in 10.0 mi NNE 11.5 mph - N/A   Overcast
1:15 PM 28.4 °F 21.2 °F 15.8 °F 59% 30.24 in 10.0 mi NNE 6.9 mph - N/A   Overcast
1:35 PM 28.4 °F 23.3 °F 15.8 °F 59% 30.24 in 10.0 mi NE 4.6 mph - N/A   Overcast
1:55 PM 32.0 °F 26.4 °F 15.8 °F 51% 30.23 in 10.0 mi NNE 5.8 mph - N/A   Overcast
2:15 PM 32.0 °F - 15.8 °F 51% 30.23 in 10.0 mi Calm Calm - N/A   Overcast
2:35 PM 32.0 °F 28.7 °F 15.8 °F 51% 30.23 in 10.0 mi North 3.5 mph - N/A   Overcast
2:55 PM 32.0 °F - 15.8 °F 51% 30.23 in 10.0 mi Calm Calm - N/A   Overcast
3:15 PM 32.0 °F - 15.8 °F 51% 30.22 in 10.0 mi Calm Calm - N/A   Overcast
3:35 PM 32.0 °F 25.6 °F 15.8 °F 51% 30.23 in 10.0 mi NE 6.9 mph - N/A   Overcast
3:55 PM 32.0 °F 27.5 °F 15.8 °F 51% 30.22 in 10.0 mi ENE 4.6 mph - N/A   Overcast
4:15 PM 32.0 °F 28.7 °F 15.8 °F 51% 30.22 in 10.0 mi ENE 3.5 mph - N/A   Overcast
4:35 PM 32.0 °F 26.4 °F 17.6 °F 55% 30.21 in 10.0 mi ENE 5.8 mph - N/A   Overcast
4:55 PM 32.0 °F 25.6 °F 17.6 °F 55% 30.21 in 10.0 mi NNE 6.9 mph - N/A   Overcast
5:15 PM 32.0 °F 26.4 °F 17.6 °F 55% 30.22 in 10.0 mi East 5.8 mph - N/A   Overcast
5:35 PM 32.0 °F 27.5 °F 17.6 °F 55% 30.21 in 10.0 mi East 4.6 mph - N/A   Overcast
5:55 PM 32.0 °F 26.4 °F 17.6 °F 55% 30.22 in 10.0 mi ENE 5.8 mph - N/A   Overcast
6:15 PM 32.0 °F 26.4 °F 17.6 °F 55% 30.22 in 10.0 mi ENE 5.8 mph - N/A   Overcast
6:35 PM 30.2 °F 24.3 °F 15.8 °F 55% 30.23 in 10.0 mi ENE 5.8 mph - N/A   Overcast
6:55 PM 28.4 °F 21.2 °F 15.8 °F 59% 30.23 in 10.0 mi ESE 6.9 mph - N/A   Overcast
7:15 PM 26.6 °F 20.0 °F 14.0 °F 59% 30.23 in 10.0 mi ESE 5.8 mph - N/A   Mostly Cloudy
7:35 PM 24.8 °F 20.5 °F 14.0 °F 64% 30.24 in 10.0 mi SE 3.5 mph - N/A   Mostly Cloudy
7:55 PM 24.8 °F 17.9 °F 15.8 °F 69% 30.23 in 10.0 mi SE 5.8 mph - N/A   Mostly Cloudy
8:15 PM 24.8 °F 17.9 °F 15.8 °F 69% 30.22 in 10.0 mi SE 5.8 mph - N/A   Partly Cloudy
8:35 PM 26.6 °F 20.0 °F 15.8 °F 64% 30.23 in 10.0 mi SSE 5.8 mph - N/A   Clear
8:55 PM 26.6 °F 22.6 °F 15.8 °F 64% 30.24 in 10.0 mi SSE 3.5 mph - N/A   Clear
9:15 PM 24.8 °F 17.9 °F 15.8 °F 69% 30.23 in 10.0 mi SE 5.8 mph - N/A   Clear
9:35 PM 24.8 °F 17.9 °F 15.8 °F 69% 30.23 in 10.0 mi SE 5.8 mph - N/A   Clear
9:55 PM 24.8 °F 19.1 °F 15.8 °F 69% 30.24 in 10.0 mi South 4.6 mph - N/A   Clear
10:15 PM 24.8 °F 19.1 °F 15.8 °F 69% 30.25 in 10.0 mi South 4.6 mph - N/A   Partly Cloudy
10:35 PM 24.8 °F 20.5 °F 15.8 °F 69% 30.24 in 10.0 mi SSE 3.5 mph - N/A   Partly Cloudy
10:55 PM 23.0 °F 17.0 °F 15.8 °F 74% 30.24 in 10.0 mi SSE 4.6 mph - N/A   Partly Cloudy
11:15 PM 23.0 °F 15.8 °F 15.8 °F 74% 30.23 in 10.0 mi SSE 5.8 mph - N/A   Mostly Cloudy
11:35 PM 21.2 °F 13.6 °F 14.0 °F 74% 30.22 in 10.0 mi SSE 5.8 mph - N/A   Partly Cloudy
11:55 PM 21.2 °F 12.6 °F 14.0 °F 74% 30.23 in 10.0 mi South 6.9 mph - N/A   Clear